Imperial, CA

6:06 PM PDT on August 20, 2017 (GMT -0700)
Imperial County

Weather History for KIPL - December, 2011

Change the Weather History Date:

Saturday, December 24, 2011

  Actual Average Record
Temperature  
Mean Temperature 52 °F -  
Max Temperature 68 °F 67 °F 85 °F (1964)
Min Temperature 35 °F 39 °F 28 °F (1953)
Degree Days  
Heating Degree Days 14    
Growing Degree Days 2 (Base 50)    
Moisture  
Dew Point 18 °F    
Average Humidity 34    
Maximum Humidity 53    
Minimum Humidity 8    
Precipitation  
Precipitation 0.00 in - - ()
Sea Level Pressure  
Sea Level Pressure 30.37 in    
Wind  
Wind Speed 5 mph (WSW)    
Max Wind Speed 8 mph    
Max Gust Speed -    
Visibility 10 miles    
Events      
Averages and records for this station are not official NWS values.
T = Trace of Precipitation, MM = Missing Value Source: NWS Daily Summary

Daily Weather History Graph

Daily Weather History Graph

Search for Another Location

Airport or City:

Trip Planner

Search our weather history database for the weather conditions in past years. The results will help you decide how hot, cold, wet, or windy it might be!

Date:

Astronomy

Dec. 24, 2011 Rise Set
Actual Time 6:42 AM PST 4:41 PM PST
Civil Twilight 6:14 AM PST 5:08 PM PST
Nautical Twilight 5:44 AM PST 5:39 PM PST
Astronomical Twilight 5:13 AM PST 6:09 PM PST
Moon 6:34 AM PST (12/24) 4:58 PM PST (12/24)
Length of Visible Light 10h 54m
Length of Day
9h 59m
New Moon, 0% of the Moon is Illuminated
Dec 24
New Moon
Dec 31
First Quarter
Jan 8
Full
Jan 16
Last Quarter
Jan 22
New

Hourly Weather History & Observations

Time (PST) Temp. Windchill Dew Point Humidity Pressure Visibility Wind Dir Wind Speed Gust Speed Precip Events Conditions
12:53 AM 39.0 °F 33.4 °F 19.9 °F 46% 30.36 in 10.0 mi West 8.1 mph - N/A   Clear
1:53 AM 37.0 °F 32.4 °F 21.0 °F 52% 30.37 in 10.0 mi West 5.8 mph - N/A   Clear
2:53 AM 39.9 °F 36.7 °F 19.0 °F 43% 30.37 in 10.0 mi SW 4.6 mph - N/A   Clear
3:53 AM 39.9 °F - 17.1 °F 40% 30.36 in 10.0 mi Calm Calm - N/A   Clear
4:53 AM 35.1 °F 32.2 °F 19.0 °F 52% 30.37 in 10.0 mi WNW 3.5 mph - N/A   Clear
5:53 AM 35.1 °F 31.0 °F 19.0 °F 52% 30.38 in 10.0 mi WSW 4.6 mph - N/A   Clear
6:53 AM 35.1 °F 31.0 °F 19.0 °F 52% 30.39 in 10.0 mi SW 4.6 mph - N/A   Clear
7:53 AM 39.0 °F 34.8 °F 23.0 °F 53% 30.40 in 10.0 mi SW 5.8 mph - N/A   Clear
8:53 AM 50.0 °F - 24.1 °F 36% 30.42 in 10.0 mi West 4.6 mph - N/A   Clear
9:53 AM 57.0 °F - 21.0 °F 25% 30.42 in 10.0 mi SW 3.5 mph - N/A   Clear
10:53 AM 63.0 °F - 7.0 °F 11% 30.40 in 10.0 mi Calm Calm - N/A   Clear
11:53 AM 64.0 °F - 3.9 °F 9% 30.38 in 10.0 mi Calm Calm - N/A   Clear
12:53 PM 66.0 °F - 5.0 °F 9% 30.34 in 10.0 mi Calm Calm - N/A   Clear
1:53 PM 68.0 °F - 3.9 °F 8% 30.32 in 10.0 mi NNW 4.6 mph - N/A   Clear
2:53 PM 68.0 °F - 7.0 °F 9% 30.32 in 10.0 mi Calm Calm - N/A   Clear
3:53 PM 66.0 °F - 16.0 °F 15% 30.32 in 10.0 mi SW 5.8 mph - N/A   Clear
4:53 PM 59.0 °F - 25.0 °F 27% 30.32 in 10.0 mi WSW 5.8 mph - N/A   Clear
5:53 PM 50.0 °F - 23.0 °F 35% 30.34 in 10.0 mi WSW 5.8 mph - N/A   Clear
6:53 PM 50.0 °F - 21.0 °F 32% 30.35 in 10.0 mi WSW 3.5 mph - N/A   Clear
7:53 PM 46.0 °F 42.5 °F 23.0 °F 40% 30.36 in 10.0 mi West 6.9 mph - N/A   Clear
8:53 PM 45.0 °F 41.8 °F 21.9 °F 40% 30.37 in 10.0 mi West 5.8 mph - N/A   Clear
9:53 PM 43.0 °F 41.3 °F 21.9 °F 43% 30.38 in 10.0 mi West 3.5 mph - N/A   Clear
10:53 PM 42.1 °F 38.4 °F 21.0 °F 43% 30.37 in 10.0 mi West 5.8 mph - N/A   Clear
11:53 PM 39.0 °F 36.8 °F 21.0 °F 49% 30.36 in 10.0 mi SW 3.5 mph - N/A   Clear